www.pogodaiklimat.ru
ПОГОДА в Котсвилле
Время
и дата
01:15 19.07
01:35 19.07
01:55 19.07
02:15 19.07
02:35 19.07
02:55 19.07
03:15 19.07
03:35 19.07
03:55 19.07
04:15 19.07
04:35 19.07
04:55 19.07
05:15 19.07
05:35 19.07
05:55 19.07
06:15 19.07
06:35 19.07
06:55 19.07
07:15 19.07
07:35 19.07
07:55 19.07
08:15 19.07
08:35 19.07
08:55 19.07
09:15 19.07
09:35 19.07
09:55 19.07
10:15 19.07
10:55 19.07
11:15 19.07
11:35 19.07
11:55 19.07
12:15 19.07
12:35 19.07
12:55 19.07
13:15 19.07
13:35 19.07
13:55 19.07
14:15 19.07
14:35 19.07
14:55 19.07
15:15 19.07
15:35 19.07
15:55 19.07
16:15 19.07
16:35 19.07
16:55 19.07
17:15 19.07
Ветер
(напр.,м/с)
Видим. Явления Облачность Т
(С)
Тd
(С)
f
(%)
Тe
(С)
Тes
(С)
Комфортность P
(гПа)
Po
(гПа)
Тmin
(С)
Tmax
(С)
R
(мм)
R24
(мм)
S
(см)
С 3 16 км ясно +20.0 +17.0 83 +23 +23 комфорт 994.1
С 3 16 км ясно +20.0 +17.0 83 +23 +23 комфорт 993.8
С 2 16 км ясно +20.0 +16.0 78 +23 +23 комфорт 993.8
С 3 16 км ясно +20.0 +16.0 78 +23 +23 комфорт 994.1
С 3 16 км ясно +19.0 +17.0 88 +21 +21 комфорт 994.1
С 3 16 км ясно +19.0 +17.0 88 +21 +21 комфорт 994.1
С 3 16 км ясно +18.0 +17.0 94 +18 +18 994.5
С 2 16 км ясно +18.0 +16.0 88 +19 +19 994.5
С 3 16 км ясно +18.0 +16.0 88 +18 +18 994.8
С 3 16 км ясно +18.0 +15.0 83 +18 +18 994.8
С 4 16 км ясно +18.0 +14.0 77 +18 +18 995.1
С 3 16 км ясно +18.0 +14.0 77 +18 +18 995.1
С 3 н/о ясно +18.0 +14.0 77 +18 +18 995.4
С 2 16 км ясно +18.0 +14.0 77 +19 +19 995.8
С 2 16 км ясно +18.0 +14.0 77 +19 +19 996.1
С 2 16 км ясно +19.0 +14.0 73 +21 +22 комфорт 996.4
С 2 16 км ясно +19.0 +14.0 73 +21 +22 комфорт 996.8
нст 3 16 км ясно +20.0 +14.0 68 +22 +23 комфорт 996.8
СВ 3 16 км ясно +20.0 +13.0 64 +22 +25 комфорт 997.1
С 4 16 км ясно +21.0 +13.0 60 +24 +26 комфорт 997.4
СВ 3 16 км ясно +21.0 +14.0 64 +24 +27 комфорт 997.4
СВ 3 16 км ясно +22.0 +13.0 57 +25 +31 комфорт 997.4
СВ 4 16 км ясно +22.0 +13.0 57 +25 +30 комфорт 997.4
СВ 4 16 км ясно +22.0 +13.0 57 +25 +30 комфорт 997.4
СВ 3 16 км ясно +23.0 +13.0 53 +26 +36 жарко 997.4
СВ 3 16 км ясно +23.0 +13.0 53 +26 +36 жарко 997.4
нст 3 16 км ясно +23.0 +14.0 57 +26 +36 жарко 997.4
В 2 16 км ясно +24.0 +13.0 50 +26 +42 жарко 997.4
нст 3 16 км ясно +25.0 +14.0 50 +27 +40 жарко 997.4
З 3 16 км ясно +26.0 +15.0 51 +29 +44 душно 997.4
нст 3 16 км ясно +26.0 +14.0 48 +28 +44 жарко 997.4
штиль 0 16 км ясно +26.0 +14.0 48 +28 +54 опасность
солнечного
удара
997.4
штиль 0 16 км ясно +26.0 +14.0 48 +28 +55 опасность
солнечного
удара
997.1
СЗ 4 16 км ясно +27.0 +14.0 45 +29 +43 жарко 997.1
СЗ 4 16 км ясно +26.0 +14.0 48 +28 +42 жарко 997.1
З 3
{6}
16 км ясно +27.0 +14.0 45 +29 +45 жарко 997.1
З 4 16 км ясно +27.0 +14.0 45 +29 +42 жарко 996.8
СЗ 5 16 км ясно +27.0 +14.0 45 +29 +39 жарко 996.8
СЗ 3 16 км ясно +27.0 +14.0 45 +29 +43 жарко 996.8
СЗ 2
{5}
16 км ясно +27.0 +15.0 48 +30 +46 душно 996.4
З 4 16 км ясно +27.0 +15.0 48 +30 +41 душно 996.4
З 3 16 км 5/5 1500 m
[Ac]
+27.0 +15.0 48 +30 +35 душно 996.4
З 2 16 км 2/2 1500 м +28.0 +14.0 42 +30 +40 жарко 996.1
штиль 0 16 км 5/5 1650 m
[Ac]
+27.0 +14.0 45 +29 +38 жарко 995.8
нст 2 16 км 2/2 1650 m
[Ac]
+27.0 +15.0 48 +30 +36 душно 995.8
СЗ 3 16 км ясно +27.0 +15.0 48 +30 +36 душно 995.8
СЗ 3 16 км ясно +27.0 +14.0 45 +29 +36 жарко 995.8
СЗ 3 16 км ясно +27.0 +15.0 48 +30 +33 душно 995.4
Местоположение метеостанции Chester County G O Carlson Airport: широта 39.9800 долгота -75.8700 высота над уровнем моря 201 м.
В архиве по умолчанию представлена погода в Котсвилле за последние 1-2 суток. Обновление информации о фактической погоде в базе происходит ежечасно! Архивные данные за месяц целиком и за предыдущие месяцы Вы можете получить, выбрав интересующий диапазон дат из раскрывающегося списка и нажав кнопку "Ввод!".
Внимание! Архив погоды МЕТАР в базе сайта по станциям, не включенным в климатический монитор, хранится не более 60 дней. Нет смысла пытаться выбрать более раннюю дату.
*Определитесь, кто Вы:
Внимание! Время в таблицах - местное (без учета летнего времени). Для получения всемирного времени необходимо вычесть поправку, которая равна -5 ч.
Смотрите также архив погоды в соседних городах и на ближайших метеорологических станциях:
Партнеры нашего сайта:      
Пояснения к столбцам:
  • Ветер - указаны скорость ветра в м/с - средняя за 10 мин, порывы в срок и между сроками (в фигурных скобках) и направление, откуда дует ветер: С - северный,
  • СВ - северо-восточный, В - восточный, ЮВ - юго-восточный, Ю - южный, ЮЗ - юго-западный, З - западный, СЗ - северо-западный.
  • Видимость - горизонтальная дальность видимости в метрах или километрах. При видимости от 1 до 10 км при отсутствии осадков обычно наблюдается дымка, при ухудшении видимости до 1 км и менее - туман. В сухую погоду видимость может ухудшаться дымом, пылью или мглою.
  • Явления - указаны атмосферные явления, наблюдавшиеся в срок или в последний час перед сроком; фигурными скобками обозначены явления, наблюдавшиеся между сроками (за 1-3 часа до срока); квадратными скобками обозначены град или гололедные отложения с указанием их диаметра в мм.
  • Облачность - указаны через наклонную черту общая и нижняя облачность в баллах и высота нижней границы облаков в метрах; квадратными скобками обозначены формы облаков: Ci - перистые, Cs - перисто-слоистые, Cc - перисто-кучевые, Ac - высококучевые, As - высокослоистые, Sc - слоисто-кучевые, Ns - слоисто-дождевые, Cu - кучевые, Cb - кучево-дождевые. Подробнее классификацию облаков см. в Атласе облаков (PDF).
  • T - Температура воздуха - температура, измеренная на высоте 2 м над землей.
  • Td - Температура точки росы - температура, при понижении до которой содержащийся в воздухе водяной пар достигнет насыщения.
  • f - Относительная влажность воздуха - влажноcть воздуха, измеренная на высоте 2 м над землей.
  • Te - Эффективная температура - температура, которую ощущает одетый по сезону человек в тени. Характеристика душности погоды. При расчете учитывается влияние влажности воздуха и скорости ветра на теплоощущения человека.
  • Tes - Эффективная температура на солнце - температура, которую ощущает человек, с поправкой на солнечный нагрев. Характеристика знойности погоды. Зависит от высоты солнца над горизонтом, облачности и скорости ветра. Ночью, в пасмурную погоду, а также при ветре 12 м/с и более поправка равна нулю.
  • P - Атмосферное давление - приведенное к уровню моря атмосферное давление.
  • Po - Атмосферное давление - измеренное на уровне метеостанции атмосферное давление.
  • Tmin - Минимальная температура - минимум температуры воздуха на высоте 2 м над землей.
  • Tmax - Максимальная температура - максимум температуры воздуха на высоте 2 м над землей.
  • R - Количество осадков - Количество выпавших осадков за период времени, мм. При наведении курсора мыши на число - период времени, за который выпало указанное количество осадков.
  • R24 - Количество осадков - Количество выпавших осадков за 24 часа, мм.
  • S - Снежный покров - Высота снежного покрова, см. При наведении курсора мыши на число - состояние снежного покрова и степень покрытия местности в баллах.